This is the latest recevied weather packets stored in our database for station/object KB1JL-13. If no packets are shown the sender has not sent any weather packets the latest 10 day(s).
| Time | Temp. | Humidity | Pressure | Rain* | Wind** | Luminosity | Snow |
|---|---|---|---|---|---|---|---|
| 1777840809 | 12.78° C | 41% | 1020.9 hPa | 0 mm | - | 408 W/m² | - |
| 1777840506 | 12.78° C | 42% | 1020.9 hPa | 0 mm | - | 434 W/m² | - |
| 1777840203 | 12.78° C | 40% | 1020.9 hPa | 0 mm | - | 452 W/m² | - |
| 1777839901 | 12.78° C | 43% | 1020.9 hPa | 0 mm | - | 467 W/m² | - |
| 1777839599 | 12.78° C | 40% | 1020.9 hPa | 0 mm | - | 472 W/m² | - |
| 1777839296 | 12.22° C | 41% | 1020.9 hPa | 0 mm | - | 509 W/m² | - |
| 1777838993 | 11.67° C | 43% | 1020.9 hPa | 0 mm | - | 471 W/m² | - |
| 1777838690 | 11.11° C | 42% | 1020.9 hPa | 0 mm | - | 410 W/m² | - |
| 1777838386 | 11.67° C | 43% | 1020.9 hPa | 0 mm | - | 198 W/m² | - |
| 1777838084 | 11.67° C | 43% | 1020.9 hPa | 0 mm | - | 154 W/m² | - |
| 1777837780 | 11.11° C | 43% | 1020.9 hPa | 0 mm | - | 196 W/m² | - |
| 1777837477 | 11.11° C | 44% | 1020.9 hPa | 0 mm | - | 167 W/m² | - |
| 1777837172 | 11.67° C | 42% | 1020.9 hPa | 0 mm | - | 138 W/m² | - |
| 1777836868 | 11.11° C | 42% | 1020.9 hPa | 0 mm | - | 133 W/m² | - |
| 1777836564 | 11.11° C | 43% | 1020.9 hPa | 0 mm | - | 163 W/m² | - |
| 1777836261 | 12.78° C | 41% | 1020.9 hPa | 0 mm | - | 162 W/m² | - |
| 1777835956 | 12.78° C | 42% | 1020.9 hPa | 0 mm | - | 678 W/m² | - |
| 1777835654 | 12.78° C | 42% | 1020.5 hPa | 0 mm | - | 658 W/m² | - |
| 1777835350 | 13.33° C | 40% | 1020.5 hPa | 0 mm | - | 653 W/m² | - |
| 1777835048 | 12.22° C | 42% | 1020.5 hPa | 0 mm | - | 610 W/m² | - |
| 1777834744 | 12.78° C | 40% | 1020.5 hPa | 0 mm | - | 187 W/m² | - |
| 1777834441 | 12.22° C | 41% | 1020.5 hPa | 0 mm | - | 300 W/m² | - |
| 1777834140 | 12.22° C | 44% | 1020.9 hPa | 0 mm | - | 245 W/m² | - |
| 1777833836 | 12.78° C | 42% | 1020.5 hPa | 0 mm | - | 194 W/m² | - |
| 1777833533 | 12.78° C | 40% | 1020.5 hPa | 0 mm | - | 333 W/m² | - |
* Rain latest hour (hover to see other rain measurements)
** Current wind speed in m/s (hover to see current wind gust speed)